Etusivu
METAR-TAF:

METAR-TAF

Lentoasemat :

Morris Municipal Airport (James R. Washburn Field)

Morris, Illinois, Yhdysvallat

Leveyspiiri: 41-25-31N, Pituuspiiri: 088-25-07W, korkeus merenpinnasta: 178 m

Tämänhetkinen sää

Tämä raportti tehtiin 18 minuuttia sitten, kello 00.55 UTC
Tuuli 6 kn lännestä
Lämpötila 0°C
Kosteus 100%
Ilmanpaine 1021 hPa
Näkyvyys: 11.3 km
selkeää

METAR: KC09 280055Z AUTO 26006KT 7SM CLR 00/00 A3015 RMK AO2 T00030000

Aika: 19:13 (01:13 UTC)


TAF: puuttuu

Säähavainnot ja -ennusteet yli 4000 lentoasemalta (METAR- ja TAF-raportit).

Käytössä olevat sääasemat on merkitty karttaan keltaisilla ja punaisilla pisteillä.

Aseta hiiri pisteen päälle nähdäksesi sääaseman nimen.

Klikkaa sitten nähdäksesi säähavainnot ja -ennusteet.

Kartan vaihtaminen: klikkaa mustalla rastilla varustettuja vihreitä pisteitä, niin voit zoomata sisään; viivalla varustettua vihreää pistettä, niin voit zoomata ulos tai vihreitä nuolia, niin pääset viereisille kartoille.


METAR-TAF: